Time,TemperatureF,DewpointF,PressureIn,WindDirection,WindDirectionDegrees,WindSpeedMPH,WindSpeedGustMPH,Humidity,HourlyPrecipIn,Conditions,Clouds,dailyrainin,SolarRadiationWatts/m^2,SoftwareType,DateUTC
2013-02-01 00:21:00,45.0,30.0,-100.00,WSW,249,3.0,7.0,56,0.00,,,0.00,315.000000,,2013-02-01 00:21:00,
2013-02-01 00:31:00,45.0,30.0,-100.00,WSW,249,3.0,7.0,56,0.00,,,0.00,315.000000,,2013-02-01 00:31:00,
2013-02-01 00:42:00,45.0,30.0,-100.00,WSW,249,3.0,7.0,56,0.00,,,0.00,315.000000,,2013-02-01 00:42:00,
2013-02-01 00:51:00,45.0,30.0,-100.00,WSW,249,3.0,7.0,56,0.00,,,0.00,315.000000,,2013-02-01 00:51:00,
2013-02-01 01:21:00,41.0,29.0,-100.00,WSW,243,4.0,6.0,62,0.00,,,0.00,156.000000,,2013-02-01 01:21:00,
2013-02-01 01:31:00,41.0,29.0,-100.00,WSW,243,4.0,6.0,62,0.00,,,0.00,156.000000,,2013-02-01 01:31:00,
2013-02-01 01:41:00,41.0,29.0,-100.00,WSW,243,4.0,6.0,62,0.00,,,0.00,156.000000,,2013-02-01 01:41:00,
2013-02-01 01:51:00,41.0,29.0,-100.00,WSW,243,4.0,6.0,62,0.00,,,0.00,156.000000,,2013-02-01 01:51:00,
2013-02-01 02:21:00,34.0,27.0,-100.00,SW,221,2.0,5.0,76,0.00,,,0.00,16.000000,,2013-02-01 02:21:00,
2013-02-01 02:31:00,34.0,27.0,-100.00,SW,221,2.0,5.0,76,0.00,,,0.00,16.000000,,2013-02-01 02:31:00,
2013-02-01 02:41:00,34.0,27.0,-100.00,SW,221,2.0,5.0,76,0.00,,,0.00,16.000000,,2013-02-01 02:41:00,
2013-02-01 02:52:00,34.0,27.0,-100.00,SW,221,2.0,5.0,76,0.00,,,0.00,16.000000,,2013-02-01 02:52:00,
2013-02-01 03:12:00,34.0,27.0,-100.00,South,188,3.0,4.0,75,0.00,,,0.00,1.000000,,2013-02-01 03:12:00,
2013-02-01 03:21:00,34.0,27.0,-100.00,South,188,3.0,4.0,75,0.00,,,0.00,1.000000,,2013-02-01 03:21:00,
2013-02-01 03:32:00,34.0,27.0,-100.00,South,188,3.0,4.0,75,0.00,,,0.00,1.000000,,2013-02-01 03:32:00,
2013-02-01 03:41:00,34.0,27.0,-100.00,South,188,3.0,4.0,75,0.00,,,0.00,1.000000,,2013-02-01 03:41:00,
2013-02-01 03:51:00,34.0,27.0,-100.00,South,188,3.0,4.0,75,0.00,,,0.00,1.000000,,2013-02-01 03:51:00,
2013-02-01 04:21:00,31.0,27.0,-100.00,North,0,0.0,4.0,86,0.00,,,0.00,1.000000,,2013-02-01 04:21:00,
2013-02-01 04:31:00,31.0,27.0,-100.00,North,0,0.0,4.0,86,0.00,,,0.00,1.000000,,2013-02-01 04:31:00,
2013-02-01 04:41:00,31.0,27.0,-100.00,North,0,0.0,4.0,86,0.00,,,0.00,1.000000,,2013-02-01 04:41:00,
2013-02-01 04:51:00,31.0,27.0,-100.00,North,0,0.0,4.0,86,0.00,,,0.00,1.000000,,2013-02-01 04:51:00,
2013-02-01 05:22:00,30.0,27.0,-100.00,ENE,77,2.0,2.0,88,0.00,,,0.00,1.000000,,2013-02-01 05:22:00,
2013-02-01 05:32:00,30.0,27.0,-100.00,ENE,77,2.0,2.0,88,0.00,,,0.00,1.000000,,2013-02-01 05:32:00,
2013-02-01 05:41:00,30.0,27.0,-100.00,ENE,77,2.0,2.0,88,0.00,,,0.00,1.000000,,2013-02-01 05:41:00,
2013-02-01 05:51:00,30.0,27.0,-100.00,ENE,77,2.0,2.0,88,0.00,,,0.00,1.000000,,2013-02-01 05:51:00,
2013-02-01 06:21:00,29.0,25.0,-100.00,ENE,62,3.0,4.0,84,0.00,,,0.00,1.000000,,2013-02-01 06:21:00,
2013-02-01 06:32:00,29.0,25.0,-100.00,ENE,62,3.0,4.0,84,0.00,,,0.00,1.000000,,2013-02-01 06:32:00,
2013-02-01 06:41:00,29.0,25.0,-100.00,ENE,62,3.0,4.0,84,0.00,,,0.00,1.000000,,2013-02-01 06:41:00,
2013-02-01 06:52:00,29.0,25.0,-100.00,ENE,62,3.0,4.0,84,0.00,,,0.00,1.000000,,2013-02-01 06:52:00,
2013-02-01 07:22:00,26.0,25.0,-100.00,ENE,71,3.0,5.0,94,0.00,,,0.00,1.000000,,2013-02-01 07:22:00,
2013-02-01 07:32:00,26.0,25.0,-100.00,ENE,71,3.0,5.0,94,0.00,,,0.00,1.000000,,2013-02-01 07:32:00,
2013-02-01 07:41:00,26.0,25.0,-100.00,ENE,71,3.0,5.0,94,0.00,,,0.00,1.000000,,2013-02-01 07:41:00,
2013-02-01 07:51:00,26.0,25.0,-100.00,ENE,71,3.0,5.0,94,0.00,,,0.00,1.000000,,2013-02-01 07:51:00,
2013-02-01 08:21:00,27.0,24.0,-100.00,ENE,72,5.0,6.0,90,0.00,,,0.00,1.000000,,2013-02-01 08:21:00,
2013-02-01 08:31:00,27.0,24.0,-100.00,ENE,72,5.0,6.0,90,0.00,,,0.00,1.000000,,2013-02-01 08:31:00,
2013-02-01 08:42:00,27.0,24.0,-100.00,ENE,72,5.0,6.0,90,0.00,,,0.00,1.000000,,2013-02-01 08:42:00,
2013-02-01 08:52:00,27.0,24.0,-100.00,ENE,72,5.0,6.0,90,0.00,,,0.00,1.000000,,2013-02-01 08:52:00,
2013-02-01 09:21:00,26.0,24.0,-100.00,ENE,59,6.0,8.0,93,0.00,,,0.00,1.000000,,2013-02-01 09:21:00,
2013-02-01 09:32:00,26.0,24.0,-100.00,ENE,59,6.0,8.0,93,0.00,,,0.00,1.000000,,2013-02-01 09:32:00,
2013-02-01 09:41:00,26.0,24.0,-100.00,ENE,59,6.0,8.0,93,0.00,,,0.00,1.000000,,2013-02-01 09:41:00,
2013-02-01 09:51:00,26.0,24.0,-100.00,ENE,59,6.0,8.0,93,0.00,,,0.00,1.000000,,2013-02-01 09:51:00,
2013-02-01 10:21:00,25.0,23.0,-100.00,ENE,72,4.0,6.0,91,0.00,,,0.00,1.000000,,2013-02-01 10:21:00,
2013-02-01 10:31:00,25.0,23.0,-100.00,ENE,72,4.0,6.0,91,0.00,,,0.00,1.000000,,2013-02-01 10:31:00,
2013-02-01 10:42:00,25.0,23.0,-100.00,ENE,72,4.0,6.0,91,0.00,,,0.00,1.000000,,2013-02-01 10:42:00,
2013-02-01 10:52:00,25.0,23.0,-100.00,ENE,72,4.0,6.0,91,0.00,,,0.00,1.000000,,2013-02-01 10:52:00,
2013-02-01 11:21:00,24.0,22.0,-100.00,ENE,71,6.0,8.0,93,0.00,,,0.00,1.000000,,2013-02-01 11:21:00,
2013-02-01 11:32:00,24.0,22.0,-100.00,ENE,71,6.0,8.0,93,0.00,,,0.00,1.000000,,2013-02-01 11:32:00,
2013-02-01 11:41:00,24.0,22.0,-100.00,ENE,71,6.0,8.0,93,0.00,,,0.00,1.000000,,2013-02-01 11:41:00,
2013-02-01 11:53:00,24.0,22.0,-100.00,ENE,71,6.0,8.0,93,0.00,,,0.00,1.000000,,2013-02-01 11:53:00,
2013-02-01 12:22:00,24.0,23.0,-100.00,ENE,67,5.0,6.0,95,0.00,,,0.00,1.000000,,2013-02-01 12:22:00,
2013-02-01 12:32:00,24.0,23.0,-100.00,ENE,67,5.0,6.0,95,0.00,,,0.00,1.000000,,2013-02-01 12:32:00,
2013-02-01 12:42:00,24.0,23.0,-100.00,ENE,67,5.0,6.0,95,0.00,,,0.00,1.000000,,2013-02-01 12:42:00,
2013-02-01 12:52:00,24.0,23.0,-100.00,ENE,67,5.0,6.0,95,0.00,,,0.00,1.000000,,2013-02-01 12:52:00,
2013-02-01 13:21:00,21.0,20.0,-100.00,East,83,4.0,6.0,95,0.00,,,0.00,1.000000,,2013-02-01 13:21:00,
2013-02-01 13:32:00,21.0,20.0,-100.00,East,83,4.0,6.0,95,0.00,,,0.00,1.000000,,2013-02-01 13:32:00,
2013-02-01 13:42:00,21.0,20.0,-100.00,East,83,4.0,6.0,95,0.00,,,0.00,1.000000,,2013-02-01 13:42:00,
2013-02-01 13:52:00,21.0,20.0,-100.00,East,83,4.0,6.0,95,0.00,,,0.00,1.000000,,2013-02-01 13:52:00,
2013-02-01 14:21:00,22.0,21.0,-100.00,East,84,3.0,6.0,95,0.00,,,0.00,1.000000,,2013-02-01 14:21:00,
2013-02-01 14:32:00,22.0,21.0,-100.00,East,84,3.0,6.0,95,0.00,,,0.00,1.000000,,2013-02-01 14:32:00,
2013-02-01 14:42:00,22.0,21.0,-100.00,East,84,3.0,6.0,95,0.00,,,0.00,1.000000,,2013-02-01 14:42:00,
2013-02-01 14:52:00,22.0,21.0,-100.00,East,84,3.0,6.0,95,0.00,,,0.00,1.000000,,2013-02-01 14:52:00,
2013-02-01 15:21:00,20.0,19.0,-100.00,ENE,63,6.0,8.0,95,0.00,,,0.00,1.000000,,2013-02-01 15:21:00,
2013-02-01 15:32:00,20.0,19.0,-100.00,ENE,63,6.0,8.0,95,0.00,,,0.00,1.000000,,2013-02-01 15:32:00,
2013-02-01 15:42:00,20.0,19.0,-100.00,ENE,63,6.0,8.0,95,0.00,,,0.00,1.000000,,2013-02-01 15:42:00,
2013-02-01 15:51:00,20.0,19.0,-100.00,ENE,63,6.0,8.0,95,0.00,,,0.00,1.000000,,2013-02-01 15:51:00,
2013-02-01 16:22:00,21.0,19.0,-100.00,ENE,76,5.0,8.0,93,0.00,,,0.00,8.000000,,2013-02-01 16:22:00,
2013-02-01 16:32:00,21.0,19.0,-100.00,ENE,76,5.0,8.0,93,0.00,,,0.00,8.000000,,2013-02-01 16:32:00,
2013-02-01 16:42:00,21.0,19.0,-100.00,ENE,76,5.0,8.0,93,0.00,,,0.00,8.000000,,2013-02-01 16:42:00,
2013-02-01 16:52:00,21.0,19.0,-100.00,ENE,76,5.0,8.0,93,0.00,,,0.00,8.000000,,2013-02-01 16:52:00,
2013-02-01 17:22:00,28.0,23.0,-100.00,ENE,70,4.0,8.0,81,0.00,,,0.00,88.000000,,2013-02-01 17:22:00,
2013-02-01 17:42:00,28.0,23.0,-100.00,ENE,70,4.0,8.0,81,0.00,,,0.00,88.000000,,2013-02-01 17:42:00,
2013-02-01 17:52:00,28.0,23.0,-100.00,ENE,70,4.0,8.0,81,0.00,,,0.00,88.000000,,2013-02-01 17:52:00,
2013-02-01 18:22:00,31.0,24.0,-100.00,NE,55,4.0,5.0,75,0.01,,,0.01,170.000000,,2013-02-01 18:22:00,
2013-02-01 18:32:00,31.0,24.0,-100.00,NE,55,4.0,5.0,75,0.01,,,0.01,170.000000,,2013-02-01 18:32:00,
2013-02-01 18:42:00,31.0,24.0,-100.00,NE,55,4.0,5.0,75,0.01,,,0.01,170.000000,,2013-02-01 18:42:00,
2013-02-01 18:52:00,31.0,24.0,-100.00,NE,55,4.0,5.0,75,0.01,,,0.01,170.000000,,2013-02-01 18:52:00,
2013-02-01 19:21:00,41.0,27.0,-100.00,ENE,59,2.0,4.0,56,0.00,,,0.01,214.000000,,2013-02-01 19:21:00,
2013-02-01 19:32:00,41.0,27.0,-100.00,ENE,59,2.0,4.0,56,0.00,,,0.01,214.000000,,2013-02-01 19:32:00,
2013-02-01 19:41:00,41.0,27.0,-100.00,ENE,59,2.0,4.0,56,0.00,,,0.01,214.000000,,2013-02-01 19:41:00,
2013-02-01 19:51:00,41.0,27.0,-100.00,ENE,59,2.0,4.0,56,0.00,,,0.01,214.000000,,2013-02-01 19:51:00,
2013-02-01 20:21:00,43.0,28.0,-100.00,SW,235,4.0,6.0,54,0.00,,,0.01,524.000000,,2013-02-01 20:21:00,
2013-02-01 20:31:00,43.0,28.0,-100.00,SW,235,4.0,6.0,54,0.00,,,0.01,524.000000,,2013-02-01 20:31:00,
2013-02-01 20:41:00,43.0,28.0,-100.00,SW,235,4.0,6.0,54,0.00,,,0.01,524.000000,,2013-02-01 20:41:00,
2013-02-01 20:52:00,43.0,28.0,-100.00,SW,235,4.0,6.0,54,0.00,,,0.01,524.000000,,2013-02-01 20:52:00,
2013-02-01 21:21:00,46.0,27.0,-100.00,SW,232,4.0,6.0,48,0.00,,,0.01,572.000000,,2013-02-01 21:21:00,
2013-02-01 21:31:00,46.0,27.0,-100.00,SW,232,4.0,6.0,48,0.00,,,0.01,572.000000,,2013-02-01 21:31:00,
2013-02-01 21:41:00,46.0,27.0,-100.00,SW,232,4.0,6.0,48,0.00,,,0.01,572.000000,,2013-02-01 21:41:00,
2013-02-01 21:52:00,46.0,27.0,-100.00,SW,232,4.0,6.0,48,0.00,,,0.01,572.000000,,2013-02-01 21:52:00,
2013-02-01 22:21:00,48.0,30.0,-100.00,WSW,239,4.0,7.0,49,0.00,,,0.01,547.000000,,2013-02-01 22:21:00,
2013-02-01 22:32:00,48.0,30.0,-100.00,WSW,239,4.0,7.0,49,0.00,,,0.01,547.000000,,2013-02-01 22:32:00,
2013-02-01 22:42:00,48.0,30.0,-100.00,WSW,239,4.0,7.0,49,0.00,,,0.01,547.000000,,2013-02-01 22:42:00,
2013-02-01 22:51:00,48.0,30.0,-100.00,WSW,239,4.0,7.0,49,0.00,,,0.01,547.000000,,2013-02-01 22:51:00,
2013-02-01 23:11:00,48.0,28.0,-100.00,SW,230,6.0,7.0,46,0.00,,,0.01,461.000000,,2013-02-01 23:11:00,
2013-02-01 23:21:00,48.0,28.0,-100.00,SW,230,6.0,7.0,46,0.00,,,0.01,461.000000,,2013-02-01 23:21:00,
2013-02-01 23:31:00,48.0,28.0,-100.00,SW,230,6.0,7.0,46,0.00,,,0.01,461.000000,,2013-02-01 23:31:00,
2013-02-01 23:41:00,48.0,28.0,-100.00,SW,230,6.0,7.0,46,0.00,,,0.01,461.000000,,2013-02-01 23:41:00,
2013-02-01 23:52:00,48.0,28.0,-100.00,SW,230,6.0,7.0,46,0.00,,,0.01,461.000000,,2013-02-01 23:52:00,